Temp_Advection
nan nan nan nan nan nan nan nan nan nan nan nan nan nan nan nan nan nan nan nan nan nan nan nan nan nan nan nan nan nan nan nan nan
nan -0 -0 0 0 0 -0 0 -0 -0 -0 0 -0 -0 -0 0 -0 -0 -0 -0 -0 -0 -0 -0 -0 0 0 -0 -0 -0 -0 -0 nan
nan -0 -0 -0 -0 0 -0 -0 -0 0 0 0 0 -0 -0 -0 -0 0 -0 -0 -0 -0 -0 -0 -0 -0 -0 -0 -0 -0 -0 -0 nan
nan -0 -0 -0 -0 -0 -0 -0 -0 -0 0 0 -0 -0 -0 -0 -0 -0 -0 -0 -0 -0 -0 -0 -0 -0 -0 -0 -0 -0 -0 -0 nan
nan -0 -0 -0 -0 -0 -0 -0 -0 -0 -0 -0 -0 -0 -0 0 -0 -0 -0 -0 -0 -0 -0 -0 -0 -0 -0 -0 -0 -0 -0 -0 nan
nan 0 0 -0 -0 -0 -0 -0 -0 -0 -0 -0 0 -0 -0 -0 -0 -0 -0 -0 -0 -0 -0 -0 -0 -0 -0 -0 -0 -0 -0 -0 nan
nan 0 0 0 -0 0 0 0 0 0 0 0 0 0 -0 -0 -0 -0 -0 -0 -0 -0 -0 -0 -0 -0 -0 -0 -0 -0 -0 -0 nan
nan 0 0 0 0 0 0 0 0 0 0 0 0 0 0 -0 -0 -0 -0 -0 -0 -0 -0 -0 -0 -0 -0 -0 -0 -0 -0 -0 nan
nan 0 0 0 0 0 0 0 0 0 0 0 0 0 0 0 -0 -0 -0 -0 -0 -0 -0 -0 -0 -0 -0 -0 -0 -0 0 0 nan
nan 0 0 0 0 0 0 0 0 0 0 0 0 0 0 0 0 -0 -0 -0 -0 -0 -0 0 0 -0 0 -0 -0 -0 -0 -0 nan
nan 0 0 0 0 0 0 0 0 0 0 0 0 0 0 0 -0 -0 -0 -0 -0 0 -0 -0 0 0 0 0 0 -0 -0 -0 nan
nan 0 0 0 0 0 0 0 0 0 0 0 0 0 0 -0 0 -0 0 0 -0 -0 -0 -0 0 0 0 0 0 -0 0 -0 nan
nan 0 0 0 0 0 0 0 0 0 0 0 -0 -0 0 0 0 0 -0 0 0 -0 -0 -0 0 0 0 0 -0 -0 0 0 nan
nan 0 0 0 0 0 0 0 0 0 0 0 -0 -0 0 0 0 0 0 0 0 -0 -0 -0 0 0 0 0 0 -0 -0 0 nan
nan 0 0 0 0 0 0 0 0 -0 -0 -0 0 -0 0 0 0 0 -0 0 0 0 0 0 0 0 0 0 -0 -0 -0 -0 nan
nan 0 0 -0 -0 0 0 -0 -0 0 0 0 0 0 0 -0 -0 0 -0 -0 -0 -0 0 0 0 0 0 0 0 0 -0 -0 nan
nan 0 0 -0 -0 0 0 0 0 0 0 0 0 0 -0 -0 0 0 0 -0 -0 -0 -0 0 0 0 0 0 0 0 -0 -0 nan
nan 0 -0 0 0 0 0 0 0 -0 0 0 0 0 0 -0 -0 -0 0 -0 -0 -0 -0 0 0 0 0 0 0 0 0 -0 nan
nan 1 1 0 1 1 0 0 0 0 0 0 0 0 1 0 0 -0 -0 0 0 0 0 0 0 0 0 0 0 0 0 0 nan
nan nan nan nan nan nan nan nan nan nan nan nan nan nan nan nan nan nan nan nan nan nan nan nan nan nan nan nan nan nan nan nan nan
Wind_Speed
20 21 21 21 21 20 18 18 17 17 15 16 15 15 15 15 15 15 15 15 15 14 12 10 10 10 11 12 13 14 14 14 14
22 22 21 20 19 18 16 15 15 15 13 12 12 12 13 12 13 13 13 14 13 13 12 11 11 10 11 12 12 13 13 14 13
23 22 21 19 17 15 14 13 11 11 10 9 10 10 10 10 10 11 11 11 11 11 11 11 11 11 11 11 12 12 12 12 12
22 21 19 18 16 14 13 11 9 7 7 7 7 7 8 7 8 9 9 10 10 10 10 10 10 11 11 11 11 11 12 12 12
21 20 18 16 14 12 11 9 7 6 4 4 4 4 5 6 5 6 7 8 9 9 9 9 9 10 10 10 10 10 11 11 11
19 18 17 14 12 11 9 7 6 3 2 1 1 2 3 3 3 3 4 6 6 7 8 8 8 9 9 9 9 10 10 9 9
18 17 16 14 12 10 8 7 6 4 2 1 1 1 1 2 3 1 2 4 5 6 7 8 8 9 8 9 8 9 9 8 8
16 15 14 12 10 9 8 7 7 6 5 3 3 2 1 1 1 1 1 2 4 6 7 7 8 8 8 10 10 9 9 8 8
14 13 12 11 10 9 8 8 7 7 5 3 2 2 2 1 1 2 2 3 5 6 8 9 9 9 10 8 8 10 9 8 9
13 12 10 10 10 9 9 8 8 7 6 4 3 3 3 3 3 3 4 4 5 7 8 8 10 10 9 10 10 10 10 10 10
13 10 10 9 9 9 9 8 7 6 5 4 3 4 4 2 4 6 7 7 8 9 9 11 11 12 10 10 11 7 9 13 15
13 11 10 10 9 9 9 8 7 6 5 4 4 3 2 6 7 8 9 9 12 14 13 12 10 14 11 13 12 7 12 18 17
14 12 11 12 12 11 9 8 8 6 4 2 2 4 7 8 11 11 14 14 16 15 16 16 12 13 12 11 10 10 16 20 17
15 14 13 13 12 11 11 10 8 4 2 4 7 9 11 11 15 17 20 20 20 19 15 12 12 9 9 11 9 11 15 18 16
15 13 15 16 14 14 12 10 7 4 6 8 11 12 12 16 19 21 23 19 17 15 12 10 10 11 11 13 13 13 14 13 15
17 13 15 18 16 13 12 10 8 9 9 12 14 14 18 20 19 14 8 12 8 7 8 10 12 10 11 11 12 11 14 14 16
23 20 16 17 16 15 14 13 12 9 9 13 14 11 11 9 6 7 10 9 11 11 10 9 10 10 12 11 13 13 14 15 17
27 27 21 18 17 19 18 15 14 13 14 15 14 6 5 9 13 12 12 12 11 9 7 7 9 11 14 14 15 18 15 16 18
29 32 31 28 27 21 17 14 16 16 15 16 19 19 19 10 7 9 9 6 9 8 10 13 14 15 16 16 18 19 17 16 16
32 34 32 25 22 19 13 14 15 15 15 19 17 16 16 16 16 12 14 12 12 14 15 15 17 17 20 17 19 17 15 17 17
Wind_Direction
140 137 136 137 134 131 127 123 119 115 108 101 91 90 84 81 80 78 76 74 73 73 67 64 55 47 41 37 36 37 36 36 36
141 141 141 141 139 135 132 128 118 114 107 102 91 88 84 80 77 76 75 72 69 67 67 62 57 52 47 42 39 36 35 34 33
145 146 145 146 145 143 140 133 125 115 104 100 91 85 83 78 74 73 73 73 68 63 58 53 49 47 43 40 37 34 33 32 33
149 149 149 149 152 152 150 145 137 124 111 100 90 78 73 69 67 69 70 69 66 59 53 48 45 42 39 36 33 31 29 25 25
152 151 152 153 154 156 162 163 157 150 138 107 92 77 65 60 62 64 63 58 56 52 47 41 38 36 32 28 25 23 23 22 20
151 151 152 155 158 159 163 171 181 183 166 111 37 60 62 53 53 64 59 55 48 43 38 30 27 24 16 12 11 12 12 10 13
159 160 161 163 167 171 174 182 193 204 223 229 304 332 6 18 26 50 43 36 28 26 23 19 17 14 1 353 355 353 355 1 5
169 171 173 173 178 184 190 197 204 208 207 233 254 267 288 318 335 344 353 7 359 0 5 9 7 356 348 350 351 349 346 345 348
178 181 184 187 193 198 201 203 203 198 201 204 204 230 256 278 295 301 309 334 339 340 343 352 345 335 343 351 358 359 345 339 329
194 196 203 206 207 208 201 196 196 200 204 207 219 239 259 275 289 297 304 310 324 340 335 331 326 324 339 339 336 354 356 358 347
195 209 217 209 207 206 202 203 203 206 208 219 234 254 267 287 314 319 312 309 314 319 315 311 321 304 320 318 326 331 351 346 342
209 218 212 210 211 211 217 219 216 218 229 242 268 278 296 315 317 311 308 299 299 301 299 294 287 285 308 307 310 334 339 335 330
214 221 217 216 216 217 222 224 221 224 243 273 317 308 314 301 298 297 290 289 288 290 288 286 278 279 290 286 290 319 323 330 325
221 221 218 220 222 221 219 219 218 213 276 294 293 290 293 290 288 290 298 293 286 287 287 277 266 266 268 271 296 311 320 336 333
227 235 225 220 218 221 221 222 215 225 263 278 277 279 281 282 288 292 297 297 288 281 277 270 251 256 263 264 283 303 318 327 336
235 244 236 225 220 219 216 214 225 237 255 265 274 277 283 284 289 293 299 311 312 295 269 258 255 264 255 260 276 291 311 315 326
239 239 242 228 218 199 211 227 233 242 249 270 283 296 293 292 270 263 286 295 294 289 291 259 248 246 252 258 279 298 297 302 317
246 240 231 216 210 213 210 216 230 250 259 265 268 286 260 289 277 278 272 282 277 291 268 262 248 254 259 280 284 299 289 297 316
259 245 235 223 222 220 224 227 248 255 256 275 273 266 261 263 276 268 265 261 261 261 256 259 254 257 267 271 285 289 287 293 314
271 258 233 238 227 206 223 249 267 262 293 286 278 274 269 266 256 270 273 273 269 272 266 256 262 265 271 260 272 277 283 305 326
Height
1558 1561 1563 1566 1567 1569 1571 1572 1573 1574 1574 1574 1575 1575 1575 1576 1576 1576 1575 1575 1575 1574 1573 1573 1572 1571 1570 1569 1568 1566 1565 1564 1563
1559 1562 1565 1567 1569 1570 1572 1573 1575 1575 1576 1576 1576 1577 1576 1577 1577 1576 1576 1576 1575 1575 1574 1574 1573 1572 1571 1570 1569 1567 1566 1565 1563
1560 1563 1565 1568 1570 1571 1573 1574 1576 1577 1577 1578 1578 1578 1577 1578 1577 1577 1577 1576 1576 1575 1575 1574 1573 1572 1571 1570 1569 1568 1567 1566 1564
1561 1564 1566 1569 1571 1572 1574 1575 1576 1577 1578 1579 1579 1579 1579 1578 1578 1578 1577 1577 1576 1576 1575 1575 1574 1573 1572 1571 1570 1569 1567 1566 1565
1563 1564 1567 1570 1572 1573 1575 1576 1576 1578 1578 1579 1579 1579 1579 1579 1579 1578 1578 1577 1576 1576 1576 1575 1574 1574 1573 1572 1570 1569 1568 1566 1565
1564 1566 1567 1570 1573 1574 1575 1576 1577 1578 1578 1579 1579 1579 1579 1579 1579 1578 1578 1577 1576 1576 1575 1574 1574 1574 1573 1572 1571 1569 1568 1566 1565
1564 1566 1567 1569 1571 1573 1574 1576 1577 1577 1577 1578 1578 1579 1579 1579 1579 1578 1578 1577 1576 1576 1575 1574 1573 1573 1572 1571 1570 1569 1568 1567 1565
1564 1566 1567 1568 1570 1572 1573 1574 1575 1576 1577 1577 1577 1578 1578 1578 1578 1578 1578 1577 1576 1576 1575 1575 1573 1572 1570 1570 1570 1569 1568 1567 1566
1563 1565 1567 1567 1569 1571 1572 1573 1574 1575 1576 1576 1577 1577 1578 1577 1577 1577 1577 1576 1576 1575 1575 1574 1573 1571 1570 1568 1568 1568 1567 1566 1565
1562 1564 1566 1567 1568 1570 1571 1572 1573 1574 1574 1575 1576 1576 1577 1577 1577 1576 1575 1575 1575 1574 1574 1573 1572 1571 1569 1568 1566 1566 1565 1565 1564
1560 1562 1564 1565 1567 1569 1570 1571 1572 1572 1573 1573 1574 1575 1575 1575 1575 1575 1575 1574 1574 1573 1572 1571 1571 1569 1568 1567 1566 1565 1564 1564 1563
1559 1561 1562 1564 1565 1567 1569 1570 1570 1571 1572 1572 1573 1573 1573 1574 1573 1573 1572 1571 1571 1570 1570 1569 1568 1566 1567 1565 1564 1563 1564 1563 1561
1556 1558 1560 1561 1562 1564 1567 1568 1569 1570 1571 1572 1572 1572 1572 1572 1571 1571 1570 1569 1567 1567 1566 1566 1565 1565 1564 1562 1561 1561 1560 1560 1558
1554 1554 1557 1558 1560 1562 1564 1565 1567 1568 1569 1570 1570 1570 1570 1569 1569 1568 1567 1565 1563 1562 1562 1561 1562 1563 1563 1562 1560 1560 1559 1557 1556
1552 1554 1554 1554 1555 1559 1562 1564 1563 1565 1567 1567 1566 1567 1567 1566 1564 1563 1563 1560 1559 1558 1559 1559 1559 1560 1560 1560 1559 1559 1558 1556 1554
1550 1552 1552 1552 1552 1555 1558 1562 1562 1562 1563 1564 1563 1563 1563 1561 1559 1558 1558 1557 1556 1555 1555 1555 1556 1556 1557 1557 1557 1556 1555 1553 1552
1545 1547 1548 1549 1550 1551 1555 1558 1559 1560 1560 1561 1559 1559 1560 1557 1555 1555 1554 1554 1553 1553 1553 1552 1553 1554 1554 1553 1554 1553 1552 1552 1550
1539 1542 1544 1545 1547 1548 1551 1553 1555 1556 1557 1557 1558 1556 1556 1556 1553 1551 1551 1550 1550 1549 1548 1549 1549 1550 1551 1552 1552 1550 1549 1548 1548
1534 1535 1536 1537 1540 1544 1545 1547 1550 1551 1552 1552 1552 1552 1551 1552 1550 1547 1547 1546 1546 1547 1546 1547 1547 1546 1547 1547 1548 1547 1546 1545 1544
1526 1526 1522 1529 1529 1534 1541 1544 1546 1545 1543 1548 1549 1548 1548 1547 1547 1544 1544 1545 1544 1543 1543 1543 1543 1542 1542 1542 1543 1544 1542 1542 1540